Theta_e
315 315 316 317 317 316 316 316 316 315 314 313 313 313 314 313 314 308 303 307 304 298 300 304 306 300 300 298 294 297 297 299 296 293 293 292 292 294 292 294 294 293 292 291 292 290 289 312 312 303 308 311 314 315
315 315 315 315 316 316 316 316 316 315 315 313 313 313 313 313 313 311 299 306 306 301 301 306 308 309 307 306 300 298 298 297 298 294 293 293 291 291 290 287 298 293 299 298 299 297 305 311 313 316 315 313 314 314
314 314 314 314 315 316 315 316 316 315 314 313 313 313 313 313 312 309 300 301 302 299 300 300 300 305 308 308 308 299 299 302 300 301 296 294 290 293 288 290 293 298 303 297 300 303 306 309 315 319 317 314 318 319
313 313 313 313 314 314 315 316 315 315 315 313 313 312 312 313 312 310 299 301 300 300 294 298 308 304 308 306 307 306 304 303 302 301 297 297 294 296 292 294 294 298 300 299 299 305 307 310 315 317 318 318 319 320
313 313 314 314 314 314 314 315 315 315 315 314 313 312 312 312 311 307 301 302 305 301 294 296 303 305 306 305 307 306 303 301 299 297 298 297 298 298 298 296 295 299 296 294 294 304 307 310 317 319 318 317 318 317
312 312 313 313 313 314 314 315 315 315 314 314 313 312 312 312 311 300 300 310 311 309 296 290 299 302 306 307 305 304 304 304 303 301 297 299 300 299 296 295 298 301 301 301 299 304 308 313 315 316 317 317 317 317
312 313 313 313 313 313 314 314 315 314 314 313 313 312 311 310 303 297 299 305 307 304 298 292 292 302 307 306 307 304 304 303 304 302 299 296 298 302 297 293 300 302 304 304 306 306 306 312 310 315 315 318 318 318
312 313 312 312 313 313 313 314 314 314 314 313 312 312 311 309 307 302 306 309 305 300 302 294 292 296 305 300 299 303 301 302 301 299 299 298 301 301 294 297 302 309 310 308 306 307 307 308 312 315 318 318 316 314
312 312 312 312 312 312 313 314 314 314 313 313 312 311 305 302 300 304 315 310 306 301 297 296 292 289 303 300 300 301 302 297 303 298 298 301 298 294 301 302 303 308 307 308 309 313 313 312 311 313 316 318 314 314
312 312 312 312 312 312 313 313 314 314 313 312 305 302 300 306 317 313 305 300 298 299 297 296 296 292 299 298 297 299 298 298 296 297 304 299 298 305 308 309 310 309 308 308 305 307 311 312 313 313 314 316 316 317
312 311 311 311 312 313 313 313 313 312 309 301 300 304 307 316 304 302 295 297 297 295 295 295 296 296 304 296 297 300 294 296 293 300 300 299 299 305 310 309 310 310 308 308 309 311 314 313 315 316 319 317 315 315
311 311 311 311 312 312 313 312 313 306 301 300 299 303 303 304 300 293 292 295 295 294 299 299 302 302 303 302 297 299 297 297 292 301 299 295 303 307 307 308 309 309 309 309 310 310 312 314 315 317 319 319 314 315
311 311 311 311 312 312 313 313 312 309 305 303 302 298 298 296 287 291 289 294 297 303 305 303 299 300 298 298 297 298 295 293 300 294 296 300 305 307 307 308 309 311 311 311 310 311 312 315 317 319 318 319 321 319
310 310 311 311 311 312 312 312 311 307 301 298 299 289 293 290 293 295 296 299 303 305 305 304 299 299 301 296 298 294 298 298 293 292 294 300 303 305 308 309 312 313 315 310 309 310 312 314 315 318 320 320 322 320
310 310 311 311 311 312 312 311 310 306 303 298 298 290 293 296 297 302 304 304 306 305 303 299 299 299 299 295 298 296 294 292 293 293 298 303 306 307 308 309 312 313 316 311 310 311 314 314 315 316 318 319 320 322
310 310 310 311 311 312 310 309 307 305 303 300 297 295 297 295 297 301 301 298 305 304 301 300 296 295 298 297 296 294 292 290 294 299 303 306 306 308 309 311 313 314 316 318 319 316 317 317 317 318 319 319 320 322
309 308 311 311 312 310 309 305 305 303 300 298 294 297 297 297 296 297 299 300 305 303 298 297 293 293 301 296 295 298 294 297 302 304 307 308 308 310 312 313 315 316 317 316 315 315 317 319 318 318 319 320 320 319
308 311 311 311 309 308 305 304 304 301 298 296 293 295 296 298 299 298 299 301 300 300 298 299 297 293 294 293 294 300 302 305 307 307 308 310 312 313 315 314 315 315 316 316 317 319 319 318 317 317 318 320 318 322
310 311 311 310 309 304 301 302 302 295 297 297 297 297 298 299 300 301 301 302 305 305 302 300 296 293 295 301 302 304 304 305 306 308 311 315 316 315 314 315 316 316 315 315 314 315 317 318 319 319 320 321 321 324
311 311 311 311 309 304 302 300 304 296 294 295 296 296 296 297 299 300 300 301 302 303 300 298 295 297 298 301 307 307 309 309 308 306 310 313 316 314 315 315 315 315 317 314 314 311 318 319 318 316 316 316 321 321
307 307 309 307 305 303 300 298 297 298 296 294 297 296 296 299 297 298 298 302 302 299 299 299 299 301 303 304 307 308 310 310 308 311 312 313 318 315 313 316 317 316 317 317 317 316 314 315 317 318 316 320 322 325
304 309 305 307 302 301 297 299 296 298 296 295 295 297 294 293 295 296 301 298 298 299 300 302 303 304 305 305 308 307 311 312 312 314 309 311 313 312 314 314 315 315 315 317 319 318 318 317 317 318 318 320 318 321
308 307 304 303 298 294 292 299 295 296 292 294 299 298 298 300 301 304 298 303 304 306 306 307 307 310 309 310 312 314 315 315 313 314 315 313 316 316 315 316 315 317 316 318 318 319 319 313 316 317 320 319 319 321
307 300 297 295 294 291 297 297 298 295 297 294 294 294 296 301 304 301 297 301 304 307 310 312 311 310 310 312 310 310 312 313 315 314 313 314 312 314 318 314 317 318 316 317 318 317 319 321 316 319 322 323 322 320
292 293 294 288 297 293 292 293 295 294 295 297 297 296 299 302 296 296 297 301 303 308 307 309 312 313 312 312 312 312 313 314 312 312 316 316 317 318 314 315 317 318 319 318 317 320 318 322 321 320 320 321 320 320
288 294 290 294 293 291 292 293 295 296 295 294 295 300 300 297 295 296 300 302 304 308 309 310 312 309 310 311 313 311 316 318 317 313 318 319 317 314 312 313 313 315 321 320 319 318 318 319 320 319 319 318 308 320
289 292 295 297 296 298 294 295 298 295 294 294 298 298 294 293 295 298 306 308 308 311 314 314 311 310 309 311 315 316 316 316 316 316 321 322 323 319 316 314 313 315 318 323 322 320 320 320 318 317 317 318 320 320
293 294 292 296 296 298 292 294 294 294 297 301 300 297 296 297 299 305 307 310 309 309 310 312 311 309 311 316 316 315 315 320 321 321 318 321 321 319 319 317 317 310 312 310 318 321 320 317 317 317 316 315 316 318
292 295 294 293 297 297 297 296 293 295 301 302 299 299 301 305 308 308 310 309 308 308 307 309 309 311 313 314 315 321 317 316 315 315 314 311 310 318 322 319 317 315 315 314 302 307 314 318 317 317 317 316 315 315
293 296 294 296 295 294 297 298 296 300 300 299 300 300 301 304 307 309 307 306 306 307 310 311 313 312 310 312 314 314 316 316 317 318 312 312 316 321 321 320 316 315 316 313 310 310 308 314 311 313 313 313 313 312
297 298 296 296 295 296 299 303 302 302 302 301 302 300 301 306 309 309 309 310 310 311 311 311 312 313 315 315 313 312 313 318 319 320 322 322 320 319 318 318 317 312 309 308 307 307 307 307 309 309 309 309 309 308
296 296 296 294 294 300 302 300 301 300 301 300 300 304 304 302 299 304 309 311 312 310 312 314 316 315 318 318 318 319 308 316 321 318 318 319 319 319 318 316 314 314 311 311 311 308 309 308 307 308 308 308 306 306
297 298 299 297 295 296 301 303 302 301 303 303 304 305 304 302 301 306 317 318 314 315 317 319 318 317 314 315 312 306 302 305 301 295 294 296 297 303 312 313 313 311 309 308 307 307 307 307 308 310 309 308 308 307
Wind_Speed
8 8 8 9 8 8 8 8 8 9 11 13 14 15 16 18 18 8 5 4 3 2 8 4 1 2 4 2 2 5 5 6 5 6 3 3 3 3 4 3 3 2 4 4 3 4 4 11 5 1 1 2 2 3
7 8 8 8 9 8 8 9 8 8 9 11 12 13 14 15 15 12 3 5 3 4 9 3 15 15 13 16 5 2 5 2 4 3 2 1 3 3 3 5 5 2 2 3 1 5 5 6 5 5 5 5 2 4
8 8 8 8 9 9 8 8 7 7 8 10 11 12 12 12 12 9 3 4 3 3 6 3 2 7 2 6 6 3 3 5 2 5 4 3 3 2 3 5 4 4 3 3 3 5 8 8 8 6 6 5 4 4
9 8 9 10 9 9 9 9 8 6 7 8 10 12 12 12 11 10 2 2 1 2 2 8 6 9 11 6 6 7 6 3 6 4 3 3 3 4 4 6 6 7 4 5 6 10 15 14 13 8 8 8 5 6
9 9 9 9 10 10 9 9 8 7 7 7 8 10 12 13 14 7 3 3 4 4 3 7 14 6 9 8 5 5 7 5 3 2 3 4 3 2 4 4 11 6 9 7 7 7 5 9 6 3 6 11 8 7
9 10 10 10 10 10 9 9 9 8 8 7 8 9 10 10 12 3 3 2 4 3 2 5 6 8 9 6 2 5 5 4 4 5 3 3 4 2 4 5 8 8 6 9 7 7 11 12 10 7 11 13 9 10
10 10 9 9 9 9 9 9 8 8 8 8 8 9 9 9 1 2 3 4 4 3 1 5 6 6 8 5 3 2 3 2 3 3 3 3 2 3 3 11 21 14 15 17 15 12 10 7 8 11 12 16 5 7
10 9 9 9 9 9 8 9 8 8 7 8 9 11 10 11 5 4 3 9 4 0 1 2 5 6 3 3 4 1 2 1 0 4 1 3 2 3 6 9 8 9 11 7 8 9 13 14 10 15 8 12 9 8
9 9 8 9 8 8 8 7 8 7 8 9 10 14 3 1 1 3 5 7 2 3 1 0 2 5 5 3 3 5 1 1 1 4 3 3 3 6 4 3 5 8 9 14 16 11 9 8 10 11 12 10 9 12
9 9 8 8 8 8 7 6 7 8 9 8 3 1 2 3 9 6 4 3 3 2 1 3 2 4 1 3 4 4 3 3 2 5 2 4 4 3 1 6 9 9 10 11 12 15 13 12 7 4 12 12 11 11
9 8 7 8 7 6 6 6 5 7 5 2 1 1 2 4 2 0 1 2 2 2 3 4 4 3 2 1 3 1 4 4 3 1 3 3 3 2 4 9 11 13 13 13 9 10 7 7 12 6 5 6 8 8
8 8 8 7 6 6 6 5 3 1 1 3 2 3 2 1 0 1 3 3 4 4 4 4 5 5 1 2 1 3 3 4 5 5 3 4 1 6 11 17 20 19 16 14 11 10 12 11 10 7 6 5 5 6
8 7 8 7 7 7 6 5 4 3 5 1 1 2 2 2 3 3 2 3 2 3 4 4 3 4 2 2 1 2 3 5 5 2 3 3 9 13 17 15 16 17 16 14 12 11 10 11 8 7 7 7 6 2
7 7 7 7 7 7 6 6 3 2 1 2 3 3 4 4 5 5 5 4 5 4 3 4 2 3 2 1 1 2 3 3 3 3 4 8 17 19 17 16 15 15 12 8 8 9 9 8 7 7 8 7 5 2
6 6 6 7 8 7 8 6 3 1 1 2 2 5 6 6 5 4 4 1 3 3 1 2 2 4 1 1 1 2 3 3 3 3 8 14 20 19 17 17 15 15 11 7 6 7 8 8 7 7 7 7 7 6
7 4 5 7 9 9 8 3 1 1 2 3 5 4 5 2 4 3 1 2 3 4 2 2 0 1 2 1 1 3 1 3 4 4 10 16 23 19 17 15 14 12 11 10 7 8 8 7 7 7 8 8 8 6
9 3 11 11 11 9 6 1 2 3 3 4 4 4 4 5 6 4 1 3 2 2 2 1 2 3 3 2 2 3 4 5 10 10 9 14 20 18 14 13 13 12 10 9 9 6 8 7 5 6 8 7 5 6
3 4 14 15 9 5 2 2 2 4 6 5 3 5 3 4 3 3 3 3 2 1 1 1 2 2 4 3 3 5 6 9 7 8 10 10 13 11 9 11 12 11 11 10 10 10 5 6 5 1 2 4 4 5
2 7 16 16 4 3 4 3 3 4 6 4 5 4 4 5 4 4 3 4 4 4 2 1 3 3 4 4 4 6 5 5 7 8 7 6 11 9 10 11 9 8 9 10 10 8 6 5 4 3 2 4 4 5
8 12 13 13 2 1 3 3 1 3 4 5 2 4 4 4 4 3 4 4 2 2 3 4 5 5 5 5 4 5 7 6 3 6 8 9 8 5 8 7 9 8 7 7 7 8 7 6 4 5 5 4 4 4
6 4 10 5 2 2 2 2 3 4 4 3 4 2 5 3 3 3 4 3 3 4 4 5 5 5 6 5 4 4 6 4 5 4 7 9 9 3 4 6 7 6 6 7 6 6 4 4 3 1 3 4 4 5
3 8 3 2 2 2 3 4 3 4 2 4 4 4 3 3 3 4 2 1 4 5 5 4 5 6 6 6 6 5 7 7 7 6 8 5 5 5 4 4 3 4 5 6 7 3 5 4 5 5 1 3 3 4
7 2 2 3 3 1 7 2 2 3 3 4 2 3 3 3 3 2 1 4 4 3 3 3 4 4 5 6 5 8 6 6 5 4 5 4 5 5 5 4 3 3 4 6 4 4 6 9 6 2 2 4 3 5
1 3 3 4 3 3 4 4 3 3 3 3 3 4 4 2 1 1 3 2 3 2 3 3 2 4 4 4 3 5 5 2 3 5 4 3 3 4 4 4 4 2 3 4 4 4 5 6 8 8 7 9 8 7
4 2 3 3 3 3 4 3 4 2 4 4 2 4 4 2 1 2 2 3 2 2 2 3 3 2 1 3 4 4 4 0 3 3 4 4 4 4 5 4 5 4 3 5 5 5 5 8 8 10 9 9 10 9
2 6 7 7 4 4 4 3 1 3 3 4 4 1 3 2 2 3 2 2 2 2 2 1 1 3 3 2 3 4 5 4 4 3 4 4 4 3 3 4 5 6 6 3 3 7 7 7 10 13 12 12 11 10
3 4 5 5 3 2 3 3 3 3 4 4 1 2 2 1 3 3 2 3 3 3 2 2 1 1 3 4 4 5 4 4 2 2 1 5 4 4 2 3 5 4 5 6 5 7 8 9 9 9 9 10 10 9
4 4 5 6 4 3 3 2 3 4 3 2 2 2 2 1 3 4 4 3 2 2 3 2 1 2 2 4 4 4 3 4 5 4 3 4 3 4 4 3 4 8 6 7 6 8 9 8 8 7 8 8 8 7
4 4 2 5 4 4 5 4 5 4 1 4 3 4 5 5 4 3 4 2 1 3 3 4 5 4 4 4 4 3 2 3 5 4 1 2 4 4 3 4 4 4 3 6 11 9 9 7 7 6 7 6 5 5
6 5 3 4 4 5 5 5 4 4 3 5 4 3 5 6 4 1 2 2 2 2 3 3 4 4 4 3 4 2 2 2 5 4 5 4 4 2 2 2 3 3 2 5 6 5 9 7 7 6 6 6 5 6
3 3 5 5 5 5 7 6 7 6 6 6 5 5 5 1 1 1 2 1 1 3 4 5 5 4 4 3 2 3 1 3 5 6 5 3 2 2 1 2 1 4 5 6 6 6 6 5 5 6 7 8 8 7
4 6 4 4 4 6 6 6 6 7 8 5 5 2 2 3 2 2 1 1 2 3 4 5 6 5 2 4 4 3 3 2 2 2 5 1 2 1 2 2 5 6 6 6 5 5 8 7 6 6 6 7 7 7
4 4 5 4 3 3 3 1 3 4 2 2 2 1 1 1 3 3 2 2 3 3 4 5 3 2 3 5 5 4 5 4 6 8 8 7 8 7 4 2 4 6 8 8 7 8 10 9 6 7 8 8 8 6
Wind_Direction
293 302 307 314 318 314 315 319 328 338 344 349 353 356 0 3 2 10 279 353 76 277 281 257 10 42 352 97 164 274 21 348 21 41 56 314 348 321 308 350 314 298 309 301 327 226 282 353 323 55 95 278 253 308
286 298 307 312 314 309 311 313 319 327 333 343 347 350 356 359 3 7 327 319 330 181 247 260 267 257 228 222 161 235 186 229 187 83 38 51 324 314 280 277 339 336 170 274 213 252 270 294 238 220 183 202 241 274
278 287 298 304 306 307 308 306 308 317 325 333 337 342 348 349 354 6 274 286 350 338 305 349 304 307 154 208 177 154 291 171 105 162 165 208 234 134 265 254 288 294 179 223 357 304 268 276 265 228 206 230 214 233
268 279 286 299 294 298 300 293 302 300 310 322 330 333 337 337 335 345 296 277 151 273 310 286 340 324 291 289 231 197 175 58 122 114 149 186 196 187 229 238 259 247 220 223 250 262 275 285 238 217 215 238 219 268
265 274 281 286 288 289 292 293 290 292 296 310 320 326 329 331 326 314 210 254 251 124 273 285 310 265 295 285 263 129 126 127 132 119 174 219 212 224 240 253 261 205 235 218 226 254 216 273 273 207 231 254 209 202
259 266 275 281 284 285 286 287 283 291 287 295 309 316 319 325 337 357 28 320 12 25 53 315 291 298 312 346 180 171 206 171 150 160 204 236 225 155 258 252 240 239 229 217 233 272 275 262 260 241 224 243 263 199
258 265 268 272 277 279 278 277 273 272 282 291 297 300 305 309 12 173 209 244 15 13 91 306 308 286 310 344 326 317 19 171 145 167 207 192 217 187 248 264 273 261 273 275 262 254 284 229 242 240 244 264 237 252
255 262 267 272 274 277 277 272 264 270 279 288 295 294 295 297 270 296 250 253 143 143 278 292 286 328 323 335 313 301 256 141 320 188 171 199 190 212 254 248 302 331 310 290 291 261 247 261 257 254 230 250 279 283
253 257 262 269 271 274 276 262 262 272 284 295 300 299 335 63 264 241 105 110 70 123 304 221 280 277 343 323 286 328 47 243 186 195 229 154 204 224 275 351 328 331 332 316 322 321 339 325 310 240 225 224 223 261
248 250 255 261 268 269 261 251 264 282 288 301 315 6 329 240 126 106 30 35 16 349 342 250 256 270 12 352 304 324 318 260 233 243 181 215 249 117 2 314 306 295 308 315 326 334 338 339 317 282 217 218 217 237
241 246 253 259 261 251 237 246 275 322 321 104 302 253 294 176 38 75 294 231 145 251 207 235 237 262 334 264 271 300 301 282 290 123 249 248 216 221 271 294 297 296 304 291 270 271 261 255 293 300 316 224 224 235
230 239 246 248 240 225 225 233 261 325 156 191 250 269 298 226 301 342 264 271 190 244 188 200 225 203 264 72 58 304 285 311 256 326 268 271 297 290 304 306 303 299 294 285 274 270 278 277 270 272 283 297 248 246
219 232 238 227 219 212 213 216 221 268 325 67 256 266 91 252 11 220 246 238 231 221 219 212 246 174 21 57 285 318 287 260 315 287 272 280 276 289 298 306 301 288 283 271 261 262 262 268 269 244 266 264 266 304
211 224 227 215 210 206 202 203 222 337 88 169 185 274 198 220 235 200 209 214 229 220 241 218 214 164 150 51 234 270 268 300 283 290 287 291 295 302 310 310 308 317 305 280 256 262 264 272 263 271 278 265 251 12
201 216 211 210 198 196 186 188 186 211 252 245 241 237 225 227 261 252 254 288 278 250 263 336 28 108 110 240 206 311 288 298 303 266 272 292 305 304 310 313 313 321 318 272 250 248 257 248 250 263 258 258 224 218
182 187 206 184 180 172 172 160 196 255 255 232 239 273 277 298 286 329 269 278 324 315 346 53 72 115 190 202 239 244 270 253 262 247 277 303 301 309 313 312 313 314 317 318 302 249 241 234 235 248 272 260 245 223
175 232 173 167 161 150 161 178 205 226 248 236 255 244 244 261 251 242 215 266 277 22 263 216 305 197 137 248 250 184 225 234 264 284 288 282 295 308 317 319 325 326 326 329 321 305 258 230 226 249 266 274 251 252
224 172 151 147 136 134 164 227 248 236 243 237 234 254 240 239 254 287 272 278 63 242 123 202 221 167 233 206 231 233 236 263 269 261 270 276 289 303 322 317 320 326 327 329 349 349 19 85 103 124 349 5 45 12
227 155 155 158 143 165 168 217 198 258 242 235 242 258 245 252 242 230 236 256 217 208 206 145 249 217 233 222 240 266 273 262 292 312 306 289 279 292 296 307 322 328 344 345 339 338 326 15 58 76 81 75 82 39
134 141 156 175 7 310 213 237 177 253 269 252 262 261 231 227 231 226 261 255 220 223 216 220 220 228 227 256 229 243 277 280 295 317 308 302 296 285 284 312 307 326 332 328 341 351 359 15 27 25 26 16 74 36
98 119 124 143 244 228 246 257 236 228 256 254 273 276 258 280 262 246 248 219 182 207 224 222 230 252 250 255 253 255 277 264 258 230 275 299 310 258 281 290 289 326 327 326 324 331 356 349 320 2 79 71 45 45
101 178 116 196 213 250 247 241 224 280 270 249 303 203 243 257 248 237 215 176 222 226 206 217 230 237 258 264 259 267 266 284 276 272 271 258 308 314 300 281 344 311 302 307 303 306 312 303 323 321 83 100 153 120
143 126 112 151 195 147 260 268 216 250 248 261 267 256 252 240 229 69 200 221 244 254 213 223 252 244 242 264 267 277 263 258 283 293 291 301 295 298 305 338 262 244 306 298 309 320 321 324 339 312 27 49 39 86
59 113 150 169 175 256 268 224 221 259 253 245 257 294 290 251 286 165 237 267 266 308 356 337 337 320 324 325 297 291 295 262 301 320 308 320 345 339 356 342 342 36 280 301 2 355 354 9 9 35 39 52 50 63
97 219 128 232 219 240 248 245 206 234 252 231 269 277 273 355 318 265 230 261 307 298 299 320 318 346 269 299 290 275 280 42 11 317 312 9 334 9 10 345 333 14 4 54 20 37 23 33 38 52 55 58 58 47
184 195 181 195 212 198 229 253 138 337 278 242 242 295 32 7 281 276 254 241 246 237 246 313 334 347 331 296 327 336 322 345 343 356 2 35 32 13 351 14 4 341 353 58 82 62 45 48 57 53 48 51 50 61
219 231 199 222 231 218 272 261 254 233 222 250 99 71 35 313 261 264 264 247 229 266 234 214 199 227 257 293 310 303 307 333 51 102 157 72 5 351 340 52 24 304 322 23 48 69 66 66 61 57 58 52 47 48
243 261 218 216 204 208 229 265 253 247 241 100 78 82 256 219 305 260 227 258 266 279 321 298 288 272 272 267 263 288 326 116 119 90 26 38 344 332 341 357 21 16 45 32 42 58 70 73 73 67 57 57 54 48
242 248 227 254 223 206 214 220 223 254 150 132 178 200 219 213 226 233 269 217 242 61 350 330 315 321 306 304 308 331 62 123 136 92 358 315 318 298 3 11 41 38 39 66 55 67 72 86 87 80 78 78 73 69
236 194 227 228 208 214 217 207 241 250 233 211 217 258 274 269 270 204 101 17 15 319 277 274 274 285 277 295 293 354 7 223 211 154 156 194 226 232 245 346 26 28 47 55 74 71 61 74 53 57 57 51 54 57
236 177 207 231 247 238 255 253 249 249 254 250 245 237 265 221 263 357 70 40 9 318 299 289 297 283 275 287 177 164 299 345 69 139 146 143 107 62 9 321 38 111 115 99 85 85 85 78 89 86 83 85 85 82
194 205 207 229 244 245 250 247 249 253 258 248 258 124 61 35 291 280 240 259 303 300 321 316 282 283 316 120 121 142 153 59 97 135 110 356 295 334 16 24 106 99 95 97 97 90 98 105 104 101 97 107 110 114
205 233 229 248 261 250 271 266 301 274 243 122 79 91 121 195 270 281 279 208 240 260 279 303 331 306 109 106 128 118 78 64 54 65 94 98 97 86 92 91 99 100 94 90 85 75 66 72 83 82 77 78 94 104